Location: Unspecified
(0.0000°N, 0.0000°E)
Time: 22:23:47
(UTC+00:00)

Vela 2A - Pass Details

Date: 13 September 2024
Orbit: 51020 x 155464 km, 49.4° (Epoch: 10 October)

Event Time Altitude Azimuth Distance (km) Brightness Sun altitude
Rises 12:52:08 0° 54° (NE) 160,079 ? 75.5°
Reaches altitude 10° 13:46:14 10° 54° (NE) 158,431 ? 62.2°
Maximum altitude 19:26:32 59° 356° (N) 148,971 ? -22.7°
Drops below altitude 10° 00:50:31 10° 294° (WNW) 145,394 ? -75.9°
Sets 01:38:21 0° 292° (WNW) 145,095 ? -64.1°
